CW2234 Weather Reports


Display with metric or nautical units.
time (UTC)temp
F
wind
direction
speed
MPH
gust
MPH
rain 1hr
in
rain 24hr
in
rain mn
in
humidity
%
barometer
mb
20260904103101 66 0 0.0 1.0 0.00 0.00 0.00 87 1012.1
20260904101615 66 0 0.0 0.0 0.00 0.00 0.00 87 1011.9
20260904094604 67 0 0.0 2.0 0.00 0.00 0.00 87 1012.1
20260904093118 66 0 0.0 2.0 0.00 0.00 0.00 88 1012.0
20260904091601 66 117 1.0 2.0 0.00 0.00 0.00 88 1012.1
20260904090059 65 0 0.0 0.0 0.00 0.00 0.00 88 1012.1
20260904084603 66 0 0.0 0.0 0.00 0.00 0.00 87 1012.2
20260904083105 66 0 0.0 0.0 0.00 0.00 0.00 87 1012.2
20260904081600 66 0 0.0 2.0 0.00 0.00 0.00 87 1012.3
20260904074604 67 0 0.0 2.0 0.00 0.00 0.00 86 1012.2
20260904073101 67 0 0.0 2.0 0.00 0.00 0.00 87 1012.3
20260904071601 67 0 0.0 2.0 0.00 0.00 0.00 87 1012.2
20260904070107 67 0 0.0 2.0 0.00 0.00 0.00 87 1012.2
20260904064602 67 0 0.0 1.0 0.00 0.00 0.00 87 1012.2
20260904063101 67 0 0.0 1.0 0.00 0.00 0.00 86 1012.1
20260904061607 68 0 0.0 1.0 0.00 0.00 0.00 86 1011.9
20260904060108 68 0 0.0 1.0 0.00 0.00 0.00 86 1011.9
20260904054604 68 0 0.0 1.0 0.00 0.00 0.00 86 1012.0
20260904053102 68 117 0.0 2.0 0.00 0.00 0.00 86 1012.0
20260904051604 68 117 0.0 3.0 0.00 0.00 0.00 86 1012.1
20260904050104 69 0 0.0 3.0 0.00 0.00 0.00 86 1012.1
20260904044611 69 0 0.0 4.0 0.00 0.00 0.00 86 1012.1
20260904043059 69 0 1.0 6.0 0.00 0.00 0.00 86 1011.9
20260904041557 69 110 1.0 6.0 0.00 0.00 0.00 85 1011.9
20260904040104 69 147 1.0 5.0 0.00 0.00 0.00 85 1011.8
20260904034601 69 0 1.0 5.0 0.00 0.00 0.00 84 1011.7
20260904033059 69 111 1.0 6.0 0.00 0.00 0.00 83 1011.6
20260904031602 70 0 1.0 7.0 0.00 0.00 0.00 83 1011.5
20260904030103 70 0 0.0 5.0 0.00 0.00 0.00 83 1011.5
20260904024601 70 0 0.0 4.0 0.00 0.00 0.00 82 1011.4
20260904023106 70 0 0.0 4.0 0.00 0.00 0.00 83 1011.4
20260904021609 71 0 1.0 6.0 0.00 0.00 0.00 83 1011.4
20260904020101 71 0 1.0 5.0 0.00 0.00 0.00 81 1011.4
20260904014600 72 0 0.0 8.0 0.00 0.00 0.00 79 1011.5
20260904013102 73 118 1.0 5.0 0.00 0.00 0.00 76 1011.5
20260904011613 73 136 2.0 10.0 0.00 0.00 0.00 74 1011.5
20260904010113 74 117 1.0 6.0 0.00 0.00 0.00 73 1011.3
20260904004616 73 127 2.0 10.0 0.00 0.00 0.00 74 1011.5
20260904003102 74 0 2.0 10.0 0.00 0.00 0.00 74 1011.6
20260904001604 75 126 3.0 11.0 0.00 0.00 0.00 74 1011.6
20260904000109 75 126 2.0 10.0 0.00 0.00 0.00 73 1011.6
20260903234604 75 153 1.0 8.0 0.00 0.00 0.00 74 1011.6
20260903233102 76 124 2.0 10.0 0.00 0.00 0.00 74 1011.7
20260903231601 76 0 1.0 7.0 0.00 0.00 0.00 73 1011.8
20260903230104 75 108 2.0 8.0 0.00 0.00 0.00 73 1011.9
20260903224602 75 107 3.0 9.0 0.00 0.00 0.00 74 1012.1
20260903223057 76 115 3.0 13.0 0.00 0.00 0.00 74 1012.2
20260903221604 76 107 3.0 10.0 0.00 0.00 0.00 74 1012.3
20260903220123 76 98 2.0 9.0 0.00 0.00 0.00 74 1012.5
20260903214600 76 136 4.0 10.0 0.00 0.00 0.00 74 1012.5
20260903213101 76 98 3.0 10.0 0.00 0.00 0.00 73 1012.5
20260903211604 77 136 3.0 9.0 0.00 0.00 0.00 73 1012.5
20260903210109 77 100 3.0 7.0 0.00 0.00 0.00 72 1012.7
20260903204600 78 103 2.0 7.0 0.00 0.00 0.00 71 1012.8
20260903203130 78 126 3.0 9.0 0.00 0.00 0.00 70 1012.8
20260903201606 78 130 3.0 12.0 0.00 0.00 0.00 70 1012.8
20260903200104 78 138 3.0 10.0 0.00 0.00 0.00 71 1013.1
20260903194602 78 147 1.0 7.0 0.00 0.00 0.00 70 1013.1
20260903193101 78 123 1.0 6.0 0.00 0.00 0.00 70 1013.3
20260903191604 77 95 0.0 7.0 0.00 0.00 0.00 70 1013.5
20260903184601 78 111 1.0 5.0 0.00 0.00 0.00 69 1013.8
20260903183102 78 0 1.0 8.0 0.00 0.00 0.00 70 1014.0
20260903181600 78 88 1.0 4.0 0.00 0.00 0.00 68 1014.0
20260903174604 76 71 1.0 4.0 0.00 0.00 0.00 71 1014.2
20260903173101 75 351 3.0 8.0 0.00 0.00 0.00 72 1014.3
20260903171612 73 17 4.0 8.0 0.00 0.00 0.00 74 1014.3
20260903170107 72 238 2.0 5.0 0.00 0.00 0.00 77 1014.2
20260903164637 71 232 2.0 6.0 0.00 0.00 0.00 78 1014.3
20260903163103 71 309 3.0 8.0 0.00 0.00 0.00 78 1014.3
20260903161558 71 319 2.0 6.0 0.00 0.00 0.00 78 1014.4
20260903160105 71 360 2.0 5.0 0.00 0.00 0.00 79 1014.4
20260903154602 71 46 2.0 5.0 0.00 0.00 0.00 79 1014.4
20260903153103 71 309 1.0 4.0 0.00 0.00 0.00 80 1014.2
20260903151601 70 32 1.0 4.0 0.00 0.00 0.00 84 1014.3
20260903150101 69 45 0.0 4.0 0.00 0.00 0.00 84 1014.4
20260903144614 69 49 0.0 4.0 0.00 0.00 0.00 85 1014.3
20260903143105 68 0 0.0 3.0 0.00 0.00 0.00 86 1014.2
20260903141602 68 0 0.0 2.0 0.00 0.00 0.00 87 1013.9
20260903140105 67 42 0.0 2.0 0.00 0.00 0.00 88 1013.8
20260903134620 67 0 0.0 2.0 0.00 0.00 0.00 88 1013.7
20260903133109 67 0 0.0 2.0 0.00 0.00 0.00 88 1013.6
20260903131606 67 42 0.0 3.0 0.00 0.00 0.00 88 1013.7
20260903124610 67 0 0.0 2.0 0.00 0.00 0.00 88 1013.6
20260903123104 67 42 0.0 3.0 0.00 0.00 0.00 88 1013.6
20260903121615 67 43 1.0 3.0 0.00 0.00 0.00 88 1013.7
20260903120110 67 46 2.0 4.0 0.00 0.00 0.00 88 1013.6
20260903114601 67 51 2.0 5.0 0.00 0.00 0.00 88 1013.6
20260903113144 67 71 2.0 5.0 0.00 0.00 0.00 89 1013.8
20260903111602 67 96 1.0 3.0 0.00 0.00 0.00 89 1013.8
20260903110105 67 109 1.0 3.0 0.00 0.00 0.00 89 1013.8
20260903104611 67 108 1.0 4.0 0.00 0.00 0.00 89 1013.9